Location: Bachaquero
(10.2650°N, 66.6850°W)
Time: 02:47:48
(UTC+00:00)

Daily predictions for brighter satellites

Satellite Brightness Start Highest point End
(mag) Time Altitude Azimuth Time Altitude Azimuth Time Altitude Azimuth
Cosmos 1151 Rocket 2.9 00:01:22 10° S 00:05:40 85° W 00:09:56 10° N
Cosmos 1816 Rocket 4.4 00:00:42 10° N 00:06:46 65° E 00:10:31 24° SSE
deb Chang Zheng 4 3.3 00:06:12 44° SE 00:07:23 69° ENE 00:11:28 10° N
Ariane H10-3 3.5 00:07:42 10° WSW 00:10:08 22° SSW 00:10:08 22° SSW
Cosmos 1400 Rocket 2.7 00:10:42 10° N 00:14:35 82° W 00:15:31 51° S
Cosmos 1697 Rocket 3.3 00:10:41 10° SSW 00:16:12 57° WNW 00:21:44 10° N
Okean O Rocket 3.9 00:17:22 10° SSW 00:20:41 21° W 00:23:59 10° NW
Ariane H10+ 3.3 00:18:03 10° WSW 00:21:12 29° S 00:21:12 29° S
CSL-04 Debris 4.0 00:21:27 46° SSE 00:23:06 75° ENE 00:28:30 10° N
Cosmos 1743 Rocket 4.4 00:19:00 10° NNW 00:23:15 48° W 00:25:42 23° SSW
H-2A R/B 2.7 00:27:17 64° NE 00:27:17 64° NE 00:31:16 10° N
Cosmos 1805 Rocket 3.7 00:23:40 10° N 00:28:03 69° W 00:28:52 54° SSW
CZ-4 R/B 3.5 00:25:16 11° SSW 00:28:11 23° W 00:31:22 10° NW
GPS 2-14 Rocket1 3.4 00:24:35 10° WNW 00:27:24 45° WSW 00:27:24 45° WSW
COSMOS 2487 3.9 00:26:19 10° NNW 00:28:06 30° NW 00:28:06 30° NW
Tsikada Rocket 3.8 00:30:33 10° N 00:36:46 90° ESE 00:38:34 50° S
Cosmos 540 Rocket 4.4 00:32:08 10° NNW 00:36:59 43° W 00:39:08 28° SSW
SL-27 R/B 4.4 00:34:43 10° NW 00:37:07 24° W 00:37:07 24° W
SJ-6B 4.0 00:42:13 38° NNW 00:42:13 38° NNW 00:44:41 10° NNW
GPS 2-17 Rocket1 3.5 00:36:57 10° WNW 00:41:00 61° W 00:41:00 61° W
Cosmos 2297 Rocket 3.7 00:39:00 10° NNE 00:41:45 23° NE 00:41:45 23° NE
Sich 1 3.8 00:40:56 10° NNW 00:44:51 50° W 00:44:51 50° W
Okean-O 3.3 00:46:52 50° W 00:46:52 50° W 00:51:00 10° NNW
Meteor 1-5 Rocket 4.1 00:43:26 10° N 00:48:41 72° W 00:48:47 72° WSW
ATLAS 2AS CENTAUR R/B 3.2 00:41:40 10° SSW 00:49:18 68° WNW 00:57:03 10° NNE
Meteor 1-27 Rocket 3.7 00:50:01 78° SW 00:50:16 81° W 00:56:02 10° N
ARGOS Delta rocket 4.3 00:46:27 10° N 00:51:05 66° N 00:51:05 66° N
Cosmos 841 Rocket 4.3 00:49:34 10° NNW 00:54:27 44° WSW 00:54:59 43° WSW
BLOCK DM-SL R/B 3.8 00:51:32 10° WSW 00:59:21 26° SW 00:59:21 26° SW
Cosmos 1464 Rocket 4.3 01:12:48 63° NW 01:12:48 63° NW 01:18:11 10° N
NOSS 3-2 (A) 4.2 01:10:38 10° NNW 01:19:15 80° WSW 01:19:48 77° SSW
NOSS 3-2 (C) 4.5 01:29:14 10° NNW 01:36:15 63° N 01:36:15 63° N
CENTAUR R/B 3.6 01:37:52 10° NW 01:46:08 58° W 01:46:08 58° W
Cosmos 2227 Rocket 4.4 01:45:12 10° NNW 01:46:40 19° NNW 01:46:40 19° NNW
ALOS 4.0 07:37:44 10° NNE 07:39:54 28° NNE 07:39:54 28° NNE
CZ-2C R/B 3.6 07:42:22 10° N 07:45:19 36° N 07:45:19 36° N
Lacrosse 4 Rocket 3.6 07:51:13 20° N 07:51:13 20° N 07:52:37 10° N
DELTA 2 R/B (1) 3.7 07:54:44 70° NE 07:54:44 70° NE 07:59:38 10° NE
Cosmos 1452 Rocket 4.0 07:54:31 53° ESE 07:54:49 54° ESE 07:59:57 10° NNE
Cosmos 1825 4.1 08:01:29 25° NNE 08:01:29 25° NNE 08:03:09 10° NNE
Sylda 5 4.3 08:06:51 18° SSE 08:06:51 18° SSE 08:09:00 10° SE
Cosmos 1633 4.4 08:08:13 27° E 08:08:25 27° E 08:11:26 10° NNE
Meteor 2-1 Rocket 4.3 08:03:06 10° NNW 08:07:49 57° NW 08:07:49 57° NW
METEOR-M 3.9 08:04:34 10° N 08:09:54 85° WNW 08:10:20 76° SSW
Meteor 2-20 4.4 08:08:37 45° S 08:10:41 84° E 08:16:51 10° N
Cosmos 2366 rocket 3.9 08:04:32 10° N 08:10:45 87° E 08:14:21 27° S
Cosmos 2341 Rocket 4.1 08:05:46 10° NNW 08:11:54 56° W 08:11:54 56° W
Cosmos 1140 Rocket 4.2 08:08:22 10° N 08:13:27 52° ENE 08:18:28 10° SSE
SeaSat 1 3.4 08:12:52 10° N 08:16:24 33° NW 08:16:24 33° NW
SL-8 Rocket 3.9 08:11:41 10° NNW 08:17:53 62° W 08:19:23 49° SW
CZ-2C R/B 3.0 08:19:39 19° N 08:19:39 19° N 08:21:20 10° NNE
Envisat 4.0 08:20:32 10° NNE 08:25:19 43° E 08:30:02 10° S
Cosmos 1484 Rocket 2.6 08:24:52 10° N 08:28:46 77° WNW 08:28:46 77° WNW
Haruka 3.6 08:17:27 10° WNW 08:29:12 74° NNE 08:33:03 10° ESE
Cosmos 1023 Rocket 4.4 08:26:23 10° NNW 08:31:37 88° WSW 08:36:48 10° SSE
Cosmos 2263 4.2 08:28:09 10° NNW 08:33:53 84° ENE 08:39:38 10° SSE
ARIANE 5 R/B 3.6 08:33:50 10° NNW 08:37:22 25° WNW 08:37:22 25° WNW
Nadezhda 3 Rocket 4.2 08:39:06 29° SSW 08:42:07 51° W 08:48:13 10° N
Cosmos 1825 Rocket 4.0 08:41:28 10° S 08:45:52 62° E 08:50:13 10° NNE
Cosmos 2058 Rocket 3.6 08:45:56 10° NNW 08:49:52 35° W 08:50:15 34° WSW
Cosmos 1110 Rocket 4.0 08:48:47 26° SSW 08:51:34 60° WNW 08:56:38 10° N
ATLAS 3B CENTAUR R/B 3.7 08:53:37 10° NW 08:56:36 19° N 09:00:52 10° NE
H-2A R/B 2.7 08:53:13 10° NNE 08:56:49 76° E 09:00:13 11° S
FALCON 9 R/B 1.8 08:48:58 10° NW 08:57:57 85° SW 09:01:11 10° SE
Cosmos 2369 Rocket 2.7 08:53:13 10° NW 08:58:10 33° WSW 09:03:08 10° SSW
ARIANE 5 R/B 3.6 08:57:43 11° S 08:58:39 12° SSE 09:00:29 10° SE
Cosmos 2082 Rocket 4.5 08:54:31 10° SSE 08:58:49 22° ESE 09:03:06 10° NE
DELTA 4 R/B 3.5 08:58:10 10° NNW 08:59:12 12° N 09:00:33 10° NNE
Cosmos 1339 Rocket 4.5 08:53:27 10° S 08:59:47 85° W 09:06:11 10° N
Landsat 4 3.8 08:56:34 10° N 09:00:05 48° WNW 09:01:54 25° SW
CZ-4C R/B 3.3 08:57:20 10° SSE 09:00:45 69° ENE 09:04:17 10° N
CZ-3C R/B 4.5 00:11:30 10° WSW 09:02:45 86° SSE 09:11:05 10° ENE
Cosmos 1758 Rocket 4.2 09:01:33 24° SW 09:03:21 34° W 09:07:18 10° NNW
SJ-12 4.3 09:00:36 10° NNE 09:04:36 63° ESE 09:08:37 10° S
Cosmos 1331 Rocket 4.3 09:01:16 19° SW 09:04:41 47° WNW 09:09:41 10° N
MINOTAUR 4 R/B 4.0 09:01:19 10° SSE 09:04:48 80° ENE 09:08:16 10° N
Cosmos 1190 Rocket 3.9 08:59:37 10° NNW 09:04:53 69° WSW 09:10:09 10° S
Cosmos 1656 Rocket 4.1 09:00:51 10° NW 09:05:46 36° WSW 09:10:45 10° S
CZ-4B R/B 3.8 09:02:18 10° N 09:07:21 51° WNW 09:12:24 10° SSW
YAOGAN 6 3.2 09:05:42 10° N 09:09:01 35° WNW 09:11:04 19° SW
Cosmos 2058 2.7 09:05:13 10° S 09:09:16 74° W 09:13:20 10° N
Atlas Centaur 2 3.5 09:04:27 15° SW 09:10:52 52° SE 09:19:05 10° ENE
Meteor 1-27 4.2 09:07:09 10° NNW 09:12:41 60° W 09:18:12 10° S
Ariane H10-3 1.7 09:12:02 23° SW 09:13:03 33° S 09:15:01 10° ESE
Cosmos 1869 3.5 09:11:53 10° NNW 09:15:32 43° W 09:19:10 10° SSW
IUS R/B (1) 4.0 09:14:42 10° SSW 09:16:09 13° SSE 09:17:21 10° SE
Meteor 1-31 Rocket 4.1 09:15:21 10° NNE 09:18:54 40° E 09:22:28 10° S
Cosmos 1821 Rocket 4.3 09:14:29 10° NNW 09:20:33 48° W 09:26:36 10° SSW
NOAA 11 4.3 09:15:18 10° NNE 09:20:46 84° ESE 09:26:12 10° S
Cosmos 676 Rocket 4.0 09:18:07 10° NNW 09:23:27 83° WSW 09:28:45 10° S
CZ-2C R/B 4.3 09:25:50 10° NW 09:28:13 17° WNW 09:30:24 11° WSW
SL-8 R/B 3.7 09:24:17 10° SW 09:29:05 82° NW 09:33:54 10° NE
Genesis I 3.1 09:26:12 10° NNW 09:30:06 76° WSW 09:33:53 10° SSE
GPS 2-15 Rocket1 3.4 09:26:51 10° WNW 09:31:34 69° NNE 09:36:20 10° E
COSMOS 2406 3.3 09:26:05 10° SSW 09:31:48 86° ESE 09:37:34 10° NNE
Cosmos 1606 3.4 09:30:43 10° N 09:34:22 57° E 09:38:04 10° SSE
CZ-2C R/B 3.3 09:29:47 10° N 09:35:21 61° WNW 09:40:40 10° SSW
Cosmos 1812 Rocket 3.9 09:31:33 10° NNW 09:35:45 44° W 09:40:00 10° SSW
Delta 168 4.0 09:34:03 10° SSW 09:36:33 22° SSE 09:39:04 10° E
CZ-4B R/B 3.8 09:33:25 10° NNE 09:37:13 90° WNW 09:41:11 10° SSW
SL-08 R/B 4.2 09:36:07 10° SSW 09:39:55 26° W 09:43:43 10° NW
Cosmos 2084 4.5 09:40:33 10° S 09:44:21 41° ESE 09:48:01 10° NE
Cosmos 1953 Rocket 4.3 09:42:06 10° SSW 09:45:58 31° W 09:49:53 10° NNW
Cosmos 1727 Rocket 4.0 09:40:47 10° S 09:47:00 84° W 09:53:18 10° N
